EW4271 Weather Reports


time (UTC)temp
C
wind
direction
speed
KPH
gust
KPH
rain 1hr
cm
rain 24hr
cm
rain mn
cm
humidity
%
barometer
mb
20260504130650 6 168 0.0 0.0 0.00 0.00 0.00 77 1018.2
20260504130127 6 168 0.0 0.0 0.00 0.00 0.00 77 1018.4
20260504120138 6 168 0.0 0.0 0.00 0.00 0.00 75 1017.8
20260504110636 7 168 0.0 0.0 0.00 0.00 0.00 74 1017.6
20260504110134 7 168 0.0 0.0 0.00 0.00 0.00 73 1017.6
20260504100122 8 168 0.0 0.0 0.00 0.00 0.00 68 1017.9
20260504090132 10 140 4.8 8.0 0.00 0.00 0.00 60 1017.6
20260504081700 9 225 0.0 0.0 0.00 0.00 0.00 65 1018.5
20260504081131 9 225 0.0 0.0 0.00 0.00 0.00 65 1018.5
20260504080626 9 225 0.0 0.0 0.00 0.00 0.00 64 1018.6
20260504080123 9 225 0.0 0.0 0.00 0.00 0.00 62 1018.8
20260504070152 7 260 0.0 1.6 0.00 0.00 0.00 67 1019.1
20260504060139 8 171 0.0 0.0 0.00 0.00 0.00 61 1019.1
20260504050627 9 171 0.0 0.0 0.00 0.00 0.00 55 1019.2
20260504050124 9 171 0.0 0.0 0.00 0.00 0.00 54 1019.2
20260504045637 10 171 0.0 0.0 0.00 0.00 0.00 52 1019.2
20260504045131 10 171 0.0 0.0 0.00 0.00 0.00 51 1019.2
20260504044624 10 171 0.0 0.0 0.00 0.00 0.00 50 1019.2
20260504044139 11 171 0.0 0.0 0.00 0.00 0.00 48 1019.2
20260504043632 11 171 0.0 0.0 0.00 0.00 0.00 47 1019.2
20260504043125 11 171 0.0 0.0 0.00 0.00 0.00 50 1019.3
20260504042639 11 171 0.0 0.0 0.00 0.00 0.00 48 1019.2
20260504042133 11 171 0.0 0.0 0.00 0.00 0.00 46 1019.2
20260504041630 11 171 0.0 0.0 0.00 0.00 0.00 46 1019.1
20260504041125 11 171 0.0 0.0 0.00 0.00 0.00 46 1019.0
20260504040659 11 171 0.0 0.0 0.00 0.00 0.00 46 1019.0
20260504040131 11 171 0.0 0.0 0.00 0.00 0.00 44 1019.0
20260504035625 11 171 0.0 0.0 0.00 0.00 0.00 43 1019.0
20260504035139 11 171 0.0 1.6 0.00 0.00 0.00 42 1018.9
20260504034631 11 171 0.0 3.2 0.00 0.00 0.00 42 1019.0
20260504034126 11 171 1.6 3.2 0.00 0.00 0.00 41 1018.9
20260504033623 11 240 0.0 3.2 0.00 0.00 0.00 41 1018.9
20260504033138 11 240 1.6 3.2 0.00 0.00 0.00 39 1018.9
20260504032632 11 198 0.0 0.0 0.00 0.00 0.00 40 1018.9
20260504032124 11 240 0.0 0.0 0.00 0.00 0.00 41 1018.9
20260504031639 11 240 0.0 0.0 0.00 0.00 0.00 37 1018.8
20260504031133 11 240 0.0 0.0 0.00 0.00 0.00 38 1018.7
20260504030629 11 240 0.0 0.0 0.00 0.00 0.00 35 1018.7
20260504030125 12 240 0.0 0.0 0.00 0.00 0.00 35 1018.6
20260504025624 12 240 0.0 0.0 0.00 0.00 0.00 35 1018.6
20260504025121 12 240 0.0 6.4 0.00 0.00 0.00 29 1018.4
20260504024636 12 240 1.6 6.4 0.00 0.00 0.00 29 1018.3
20260504024132 12 282 0.0 0.0 0.00 0.00 0.00 31 1018.2
20260504023625 12 282 0.0 0.0 0.00 0.00 0.00 31 1018.1
20260504023139 12 282 0.0 1.6 0.00 0.00 0.00 31 1018.1
20260504022634 12 282 0.0 3.2 0.00 0.00 0.00 30 1018.0
20260504022127 13 282 1.6 3.2 0.00 0.00 0.00 29 1018.0
20260504021626 13 282 1.6 3.2 0.00 0.00 0.00 29 1017.9
20260504021139 13 282 1.6 3.2 0.00 0.00 0.00 29 1017.8
20260504020632 14 282 0.0 0.0 0.00 0.00 0.00 29 1017.7
20260504020127 14 282 0.0 0.0 0.00 0.00 0.00 29 1017.8
20260504015640 15 282 0.0 0.0 0.00 0.00 0.00 24 1017.7
20260504015155 15 282 0.0 1.6 0.00 0.00 0.00 26 1017.6
20260504014628 16 282 0.0 3.2 0.00 0.00 0.00 28 1017.5
20260504014122 16 282 0.0 3.2 0.00 0.00 0.00 23 1017.5
20260504013654 16 282 1.6 4.8 0.00 0.00 0.00 22 1017.4
20260504013128 17 243 1.6 4.8 0.00 0.00 0.00 21 1017.4
20260504012625 17 55 0.0 0.0 0.00 0.00 0.00 19 1017.4
20260504012139 17 55 0.0 1.6 0.00 0.00 0.00 20 1017.3
20260504011634 17 340 0.0 6.4 0.00 0.00 0.00 19 1017.4
20260504011128 17 340 1.6 6.4 0.00 0.00 0.00 19 1017.4
20260504010621 17 58 1.6 6.4 0.00 0.00 0.00 20 1017.4
20260504010136 17 40 1.6 6.4 0.00 0.00 0.00 19 1017.3
20260504005629 17 51 3.2 9.7 0.00 0.00 0.00 18 1017.4
20260504005127 18 78 3.2 9.7 0.00 0.00 0.00 19 1017.4
20260504004641 18 23 0.0 4.8 0.00 0.00 0.00 19 1017.5
20260504004154 18 23 0.0 4.8 0.00 0.00 0.00 19 1017.5
20260504003626 18 207 0.0 6.4 0.00 0.00 0.00 18 1017.5
20260504003139 18 360 3.2 6.4 0.00 0.00 0.00 18 1017.5
20260504002653 18 284 0.0 6.4 0.00 0.00 0.00 20 1017.5
20260504002126 18 252 3.2 8.0 0.00 0.00 0.00 19 1017.6
20260504001639 18 289 3.2 9.7 0.00 0.00 0.00 18 1017.5
20260504001131 18 257 4.8 9.7 0.00 0.00 0.00 18 1017.5
20260504000628 18 61 3.2 6.4 0.00 0.00 0.00 22 1017.6
20260504000121 19 46 3.2 6.4 0.00 0.00 0.00 22 1017.6
20260503235632 19 143 1.6 6.4 0.00 0.00 0.00 21 1017.6
20260503235125 18 284 3.2 4.8 0.00 0.00 0.00 22 1017.7
20260503234639 18 278 3.2 4.8 0.00 0.00 0.00 24 1017.7
20260503234132 18 293 1.6 6.4 0.00 0.00 0.00 24 1017.6
20260503233645 18 159 3.2 6.4 0.00 0.00 0.00 23 1017.6
20260503233138 18 348 3.2 8.0 0.00 0.00 0.00 24 1017.7
20260503232651 18 135 3.2 8.0 0.00 0.00 0.00 23 1017.9
20260503232123 18 235 3.2 6.4 0.00 0.00 0.00 24 1017.9
20260503231621 17 338 3.2 4.8 0.00 0.00 0.00 26 1017.9
20260503231133 17 344 3.2 4.8 0.00 0.00 0.00 26 1018.0
20260503230646 17 348 1.6 8.0 0.00 0.00 0.00 25 1018.1
20260503230139 17 325 3.2 8.0 0.00 0.00 0.00 26 1018.2
20260503225632 17 121 1.6 11.3 0.00 0.00 0.00 28 1018.3
20260503225146 17 155 4.8 11.3 0.00 0.00 0.00 27 1018.3
20260503224637 17 97 1.6 9.7 0.00 0.00 0.00 29 1018.5
20260503224130 17 95 3.2 9.7 0.00 0.00 0.00 28 1018.5
20260503223623 17 31 3.2 6.4 0.00 0.00 0.00 28 1018.7
20260503223156 17 88 3.2 9.7 0.00 0.00 0.00 27 1018.8
20260503222633 18 5 1.6 9.7 0.00 0.00 0.00 28 1018.8
20260503222139 18 75 1.6 6.4 0.00 0.00 0.00 28 1018.9
20260503221648 17 132 1.6 8.0 0.00 0.00 0.00 28 1018.9
20260503221159 18 329 3.2 8.0 0.00 0.00 0.00 27 1019.1
20260503220629 18 275 3.2 12.9 0.00 0.00 0.00 28 1019.2
20260503220201 18 128 6.4 12.9 0.00 0.00 0.00 27 1019.2
20260503215629 18 63 3.2 12.9 0.00 0.00 0.00 27 1019.2
20260503215122 18 45 3.2 9.7 0.00 0.00 0.00 27 1019.4
20260503214635 18 248 1.6 14.5 0.00 0.00 0.00 27 1019.4
20260503214148 18 130 6.4 14.5 0.00 0.00 0.00 27 1019.4
20260503213657 18 135 4.8 16.1 0.00 0.00 0.00 27 1019.6
20260503213128 18 336 6.4 16.1 0.00 0.00 0.00 26 1019.7
20260503212638 18 198 1.6 12.9 0.00 0.00 0.00 27 1019.7
20260503212134 18 129 1.6 11.3 0.00 0.00 0.00 26 1019.8
20260503211647 18 333 3.2 11.3 0.00 0.00 0.00 27 1020.0
20260503211139 17 322 3.2 8.0 0.00 0.00 0.00 30 1020.1
20260503210632 17 165 6.4 19.3 0.00 0.00 0.00 26 1020.2
20260503210125 17 78 3.2 16.1 0.00 0.00 0.00 27 1020.2
20260503205639 17 121 3.2 16.1 0.00 0.00 0.00 28 1020.4
20260503205133 17 63 3.2 14.5 0.00 0.00 0.00 29 1020.4
20260503204645 17 191 6.4 14.5 0.00 0.00 0.00 27 1020.7
20260503204138 17 94 4.8 12.9 0.00 0.00 0.00 28 1020.7
20260503203635 17 87 1.6 8.0 0.00 0.00 0.00 28 1020.7
20260503203150 17 342 3.2 12.9 0.00 0.00 0.00 29 1020.9
20260503202644 17 49 3.2 17.7 0.00 0.00 0.00 29 1021.0
20260503202137 17 250 6.4 17.7 0.00 0.00 0.00 27 1021.2
20260503201631 18 324 3.2 12.9 0.00 0.00 0.00 28 1021.3
20260503201125 17 69 4.8 12.9 0.00 0.00 0.00 28 1021.3
20260503200638 18 120 3.2 9.7 0.00 0.00 0.00 27 1021.5
20260503200133 18 132 4.8 12.9 0.00 0.00 0.00 27 1021.3
20260503195647 17 88 4.8 12.9 0.00 0.00 0.00 31 1021.3
20260503195122 17 146 1.6 14.5 0.00 0.00 0.00 31 1021.5
20260503194636 16 293 1.6 14.5 0.00 0.00 0.00 32 1021.6
20260503194130 16 178 4.8 12.9 0.00 0.00 0.00 32 1021.6
20260503193622 16 331 4.8 12.9 0.00 0.00 0.00 32 1021.9
20260503193136 16 182 1.6 11.3 0.00 0.00 0.00 33 1022.0
20260503192630 16 128 4.8 11.3 0.00 0.00 0.00 33 1022.0
20260503192123 16 304 3.2 8.0 0.00 0.00 0.00 34 1022.1
20260503191636 16 148 3.2 14.5 0.00 0.00 0.00 33 1022.2
20260503191149 16 126 3.2 14.5 0.00 0.00 0.00 33 1022.2
20260503190626 16 319 4.8 11.3 0.00 0.00 0.00 34 1022.4
20260503190139 16 153 3.2 11.3 0.00 0.00 0.00 35 1022.6
20260503185633 16 202 1.6 17.7 0.00 0.00 0.00 35 1022.6
20260503185146 17 177 8.0 17.7 0.00 0.00 0.00 34 1022.7
20260503184637 16 278 1.6 12.9 0.00 0.00 0.00 34 1022.7
20260503184131 16 171 3.2 12.9 0.00 0.00 0.00 35 1022.8
20260503183626 16 221 1.6 6.4 0.00 0.00 0.00 37 1023.0
20260503183138 15 107 1.6 12.9 0.00 0.00 0.00 36 1023.1
20260503182631 15 122 4.8 12.9 0.00 0.00 0.00 34 1023.1
20260503182128 16 81 3.2 12.9 0.00 0.00 0.00 34 1023.2
20260503181623 16 89 3.2 12.9 0.00 0.00 0.00 35 1023.4
20260503181137 16 110 3.2 12.9 0.00 0.00 0.00 35 1023.4
20260503180630 16 115 4.8 12.9 0.00 0.00 0.00 36 1023.4
20260503180124 16 144 3.2 9.7 0.00 0.00 0.00 36 1023.5
20260503175658 16 142 4.8 9.7 0.00 0.00 0.00 35 1023.6
20260503175130 16 156 4.8 11.3 0.00 0.00 0.00 35 1023.6
20260503174625 16 182 3.2 11.3 0.00 0.00 0.00 36 1023.7
20260503174143 16 112 3.2 9.7 0.00 0.00 0.00 39 1023.7
20260503173636 15 279 3.2 11.3 0.00 0.00 0.00 36 1023.7
20260503173129 15 123 3.2 8.0 0.00 0.00 0.00 38 1024.0
20260503172643 15 96 3.2 11.3 0.00 0.00 0.00 41 1024.1
20260503172136 15 284 0.0 11.3 0.00 0.00 0.00 40 1024.1
20260503171630 15 145 3.2 8.0 0.00 0.00 0.00 41 1024.3
20260503171125 14 121 3.2 11.3 0.00 0.00 0.00 41 1024.1
20260503170639 14 167 8.0 11.3 0.00 0.00 0.00 41 1024.2
20260503170134 14 54 4.8 8.0 0.00 0.00 0.00 42 1024.1
20260503160126 12 62 1.6 8.0 0.00 0.03 0.00 47 1024.6
20260503150629 10 150 3.2 6.4 0.00 0.03 0.00 52 1025.0
20260503150124 10 102 1.6 8.0 0.00 0.03 0.00 56 1025.1
20260503140126 5 189 0.0 0.0 0.00 0.03 0.00 84 1025.0